DW4118 Weather Reports


time (UTC)temp
C
wind
direction
speed
KPH
gust
KPH
rain 1hr
cm
rain 24hr
cm
rain mn
cm
humidity
%
barometer
mb
20260507213012 18 314 1.6 8.0 0.00 0.00 0.00 49 1015.6
20260507211510 18 281 3.2 8.0 0.00 0.00 0.00 53 1015.8
20260507210008 18 46 1.6 8.0 0.00 0.00 0.00 56 1015.9
20260507204507 18 11 3.2 8.0 0.00 0.00 0.00 55 1016.0
20260507203005 17 329 0.0 8.0 0.00 0.00 0.00 57 1016.1
20260507201503 18 307 1.6 9.7 0.00 0.00 0.00 55 1016.1
20260507200100 17 261 1.6 6.4 0.00 0.00 0.00 58 1016.2
20260507194557 17 308 1.6 8.0 0.00 0.00 0.00 59 1016.4
20260507193056 17 238 1.6 8.0 0.00 0.00 0.00 60 1016.6
20260507191554 16 228 1.6 8.0 0.00 0.00 0.00 60 1016.7
20260507190052 16 250 1.6 6.4 0.00 0.00 0.00 62 1016.8
20260507184549 15 133 0.0 6.4 0.00 0.00 0.00 64 1017.0
20260507183049 16 51 0.0 3.2 0.00 0.00 0.00 65 1017.2
20260507181544 15 297 1.6 8.0 0.00 0.00 0.00 64 1017.3
20260507180052 15 155 0.0 8.0 0.00 0.00 0.00 67 1017.4
20260507174539 15 263 0.0 6.4 0.00 0.00 0.00 70 1017.4
20260507173040 13 303 1.6 8.0 0.00 0.00 0.00 72 1017.5
20260507171537 13 279 0.0 6.4 0.00 0.00 0.00 73 1017.5
20260507170031 13 305 0.0 6.4 0.00 0.00 0.00 73 1017.5
20260507164531 13 308 0.0 4.8 0.00 0.00 0.00 76 1017.6
20260507163025 12 276 0.0 3.2 0.00 0.00 0.00 77 1017.6
20260507161535 11 320 0.0 1.6 0.00 0.00 0.00 80 1017.6
20260507160036 10 278 0.0 4.8 0.00 0.00 0.00 82 1017.7
20260507154518 10 335 0.0 1.6 0.00 0.00 0.00 84 1017.9
20260507153017 10 283 0.0 3.2 0.00 0.00 0.00 85 1017.8
20260507151516 9 293 0.0 1.6 0.00 0.00 0.00 85 1017.8
20260507150020 9 275 0.0 1.6 0.00 0.00 0.00 86 1017.8
20260507144526 8 252 0.0 1.6 0.00 0.00 0.00 86 1017.8
20260507143015 8 272 0.0 1.6 0.00 0.00 0.00 87 1017.8
20260507141519 8 271 0.0 1.6 0.00 0.00 0.00 88 1017.6
20260507140014 8 271 0.0 0.0 0.00 0.00 0.00 89 1017.4
20260507134513 8 271 0.0 0.0 0.00 0.00 0.00 89 1017.3
20260507133013 8 271 0.0 0.0 0.00 0.00 0.00 89 1017.5
20260507131511 8 271 0.0 0.0 0.00 0.00 0.00 89 1017.5
20260507130022 8 271 0.0 0.0 0.00 0.00 0.00 89 1017.5
20260507124511 8 271 0.0 0.0 0.00 0.00 0.00 90 1017.6
20260507123007 8 271 0.0 0.0 0.00 0.00 0.00 90 1017.5
20260507121507 8 271 0.0 1.6 0.00 0.00 0.00 90 1017.6
20260507120006 8 257 0.0 0.0 0.00 0.00 0.00 90 1017.5
20260507114505 8 257 0.0 0.0 0.00 0.00 0.00 90 1017.6
20260507113006 9 257 0.0 0.0 0.00 0.00 0.00 90 1017.7
20260507111503 9 257 0.0 1.6 0.00 0.00 0.00 90 1017.6
20260507110101 9 41 0.0 1.6 0.00 0.00 0.00 90 1017.9
20260507104600 9 312 0.0 0.0 0.00 0.00 0.00 90 1017.9
20260507103058 9 311 0.0 0.0 0.00 0.00 0.00 90 1017.9
20260507101558 9 311 0.0 3.2 0.00 0.00 0.00 90 1018.1
20260507100057 9 323 0.0 0.0 0.00 0.00 0.00 90 1018.1
20260507094553 9 323 0.0 0.0 0.00 0.00 0.00 90 1018.2
20260507093052 9 323 0.0 0.0 0.00 0.00 0.00 90 1018.3
20260507091652 9 323 0.0 0.0 0.00 0.00 0.00 90 1018.3
20260507090049 10 323 0.0 0.0 0.00 0.00 0.00 89 1018.5
20260507084550 10 295 0.0 1.6 0.00 0.00 0.00 88 1018.6
20260507083046 10 255 0.0 1.6 0.00 0.00 0.00 88 1018.5
20260507081548 10 255 0.0 3.2 0.00 0.00 0.00 87 1018.6
20260507080044 10 291 0.0 1.6 0.00 0.00 0.00 87 1018.5
20260507074546 10 294 0.0 1.6 0.00 0.00 0.00 87 1018.4
20260507073044 10 282 0.0 1.6 0.00 0.00 0.00 87 1018.3
20260507071538 10 283 0.0 3.2 0.00 0.00 0.00 86 1018.3
20260507070037 11 289 0.0 1.6 0.00 0.00 0.00 87 1018.3
20260507064534 11 291 0.0 1.6 0.00 0.00 0.00 87 1018.2
20260507063048 11 283 0.0 0.0 0.00 0.00 0.00 87 1018.3
20260507061534 11 283 0.0 0.0 0.00 0.00 0.00 86 1018.3
20260507060041 11 283 0.0 0.0 0.00 0.00 0.00 86 1018.4
20260507054530 11 283 0.0 1.6 0.00 0.00 0.00 86 1018.3
20260507053028 12 290 0.0 1.6 0.00 0.00 0.00 86 1018.3
20260507051527 12 299 0.0 3.2 0.00 0.00 0.00 86 1018.4
20260507050033 12 264 0.0 4.8 0.00 0.00 0.00 86 1018.3
20260507044526 12 304 0.0 4.8 0.00 0.00 0.00 86 1018.3
20260507043024 12 312 0.0 1.6 0.00 0.00 0.00 86 1018.0
20260507041523 12 260 0.0 1.6 0.00 0.00 0.00 86 1017.9
20260507040025 13 319 0.0 0.0 0.00 0.00 0.00 87 1017.7
20260507034532 13 293 0.0 1.6 0.00 0.00 0.00 87 1017.5
20260507033022 13 276 0.0 3.2 0.00 0.00 0.00 86 1017.2
20260507031522 14 287 0.0 0.0 0.00 0.00 0.00 84 1017.0
20260507030021 15 286 0.0 0.0 0.00 0.00 0.00 81 1016.9
20260507024525 15 286 0.0 1.6 0.00 0.00 0.00 79 1016.9
20260507023024 16 298 0.0 0.0 0.00 0.00 0.00 78 1016.9
20260507021519 16 298 0.0 1.6 0.00 0.00 0.00 76 1017.0
20260507020029 17 255 0.0 3.2 0.00 0.00 0.00 75 1017.1
20260507014519 17 319 0.0 1.6 0.00 0.00 0.00 72 1017.0
20260507013038 17 30 0.0 1.6 0.00 0.00 0.00 71 1017.1
20260507011517 18 359 0.0 0.0 0.00 0.00 0.00 71 1017.1
20260507010016 17 1 0.0 1.6 0.00 0.00 0.00 68 1017.2
20260507004517 18 306 0.0 4.8 0.00 0.00 0.00 67 1017.2
20260507003004 18 84 0.0 3.2 0.00 0.00 0.00 70 1017.4
20260507001504 18 1 0.0 4.8 0.00 0.00 0.00 66 1017.3
20260507000003 18 64 0.0 6.4 0.00 0.00 0.00 69 1017.2
20260506234503 17 334 0.0 6.4 0.00 0.00 0.00 70 1017.3
20260506233002 17 359 0.0 3.2 0.00 0.00 0.00 71 1017.3
20260506231502 18 315 3.2 6.4 0.00 0.00 0.00 67 1017.4
20260506230001 18 9 0.0 8.0 0.00 0.00 0.00 70 1017.4
20260506224505 18 83 1.6 6.4 0.00 0.00 0.00 70 1017.4
20260506223100 18 23 1.6 12.9 0.00 0.00 0.00 69 1017.6
20260506221601 18 15 0.0 6.4 0.00 0.00 0.00 68 1017.5
20260506220101 18 151 1.6 9.7 0.00 0.00 0.00 69 1017.7
20260506214657 18 64 0.0 9.7 0.00 0.00 0.00 69 1017.9